Theta_e
355 360 363 365 367 369 367 364 365 366 365 364 364 364 363 364 365 363 363 364 365 366 366 365 366 364 363 363 363 363 363 364 364 361 362 362 361 361 361 360 363 357 360
356 359 364 368 369 369 365 367 368 368 366 365 364 365 364 365 364 364 363 364 365 365 364 365 365 363 363 361 363 362 362 363 364 363 363 363 363 362 361 361 362 360 360
354 358 363 367 369 368 367 369 368 367 367 366 365 365 365 366 365 365 364 364 364 364 364 364 362 361 360 361 363 364 364 363 362 359 358 358 355 360 360 360 359 358 358
355 356 359 366 368 368 368 367 368 366 366 364 364 364 364 365 365 363 363 364 364 364 364 363 361 359 359 361 364 363 363 362 359 356 350 353 351 357 357 357 357 357 356
354 356 360 367 368 366 365 366 367 366 364 365 364 364 366 365 365 362 360 364 365 364 364 363 363 358 358 362 362 361 361 360 357 357 355 352 349 354 356 356 356 356 358
356 357 360 366 364 365 365 367 365 364 365 367 367 367 366 365 362 361 360 362 362 361 361 363 363 362 358 359 361 357 357 356 354 352 352 351 355 356 355 354 355 356 355
357 357 360 366 366 365 365 364 364 365 366 366 365 364 363 361 360 361 360 360 362 362 362 362 362 361 360 360 359 359 359 353 355 353 352 352 355 359 359 358 356 354 356
355 357 360 364 365 364 364 364 365 365 365 364 365 364 363 362 362 361 361 360 359 360 361 360 360 359 359 357 355 354 354 351 346 347 346 350 357 357 359 359 357 357 355
353 353 356 358 363 364 366 366 366 365 364 363 361 360 361 359 356 357 360 361 361 360 360 359 358 357 356 355 353 352 353 355 350 350 347 350 351 354 358 358 358 358 358
353 352 355 357 357 359 360 363 364 363 361 360 358 351 357 350 354 353 354 356 358 357 356 356 355 356 354 354 355 355 354 353 354 354 351 351 348 352 357 357 358 357 358
350 351 352 353 355 356 359 361 363 361 360 357 353 353 352 351 352 349 353 354 355 355 356 355 356 358 356 357 358 354 354 354 353 354 351 352 349 350 355 357 359 358 357
349 348 350 352 353 355 354 362 364 363 361 353 350 352 350 351 348 344 347 351 353 353 355 357 358 357 356 353 355 356 353 355 355 351 350 354 350 353 353 356 358 359 357
349 349 349 354 355 355 356 359 364 366 359 353 350 347 348 350 350 343 349 351 354 354 352 354 355 352 349 352 353 354 355 354 354 353 352 354 353 355 355 355 357 358 359
348 349 349 354 356 357 356 357 359 361 359 354 355 353 353 346 346 350 347 349 351 357 354 351 351 352 353 351 352 354 354 355 354 353 355 353 352 355 357 358 359 359 359
347 348 350 354 357 357 359 356 360 362 355 350 356 351 354 350 349 350 351 353 351 347 347 348 349 351 349 348 349 351 352 356 355 354 354 355 352 353 354 357 360 359 358
350 349 349 353 357 358 358 361 360 361 352 350 352 357 352 360 354 351 357 356 357 356 349 349 350 350 348 346 347 349 353 355 356 358 355 357 355 353 354 356 360 360 359
353 354 353 352 354 358 358 358 358 361 354 348 349 353 354 360 357 354 363 350 359 359 356 350 351 351 348 345 345 347 351 355 355 357 357 356 358 357 357 359 359 361 360
353 355 357 354 353 356 357 358 355 357 356 353 352 349 350 355 359 360 361 359 355 360 359 351 348 346 343 343 345 346 347 351 353 355 356 357 356 356 359 360 361 364 361
355 355 356 357 355 357 360 357 359 354 354 355 357 354 350 353 359 360 354 361 360 351 358 361 352 348 344 344 345 346 347 350 352 351 352 357 357 356 355 360 362 363 361
357 358 360 359 360 361 360 361 358 356 357 357 355 355 357 353 351 353 350 355 359 350 356 357 355 356 355 350 345 343 345 349 351 351 351 351 355 356 355 357 359 357 362
355 358 360 361 364 362 360 357 356 355 358 359 357 359 356 357 353 356 355 354 359 351 356 357 355 353 352 351 347 345 345 347 349 350 350 350 352 353 354 355 356 355 357
354 358 360 362 365 364 361 361 360 360 359 360 361 362 362 359 357 356 356 356 355 355 357 355 355 354 351 356 344 342 335 342 346 346 348 349 351 352 352 355 356 357 358
349 355 358 362 364 366 365 362 361 361 360 358 358 360 360 361 358 357 356 358 357 357 352 353 349 355 356 350 352 348 337 335 341 346 348 348 351 351 352 354 354 357 360
347 353 358 361 364 364 366 362 362 355 353 355 357 359 361 362 360 359 359 359 358 357 355 352 355 352 355 356 352 349 349 349 345 343 349 349 352 351 352 353 353 356 359
350 351 354 359 361 364 364 364 360 359 356 356 359 361 361 364 365 362 360 359 359 357 357 356 355 355 363 359 350 347 349 347 349 352 347 343 350 350 351 353 353 353 356
351 351 352 357 361 363 363 363 363 361 359 358 359 358 359 359 361 363 363 361 360 360 359 358 358 357 357 361 356 354 347 354 351 347 346 345 343 347 349 352 352 352 353
Wind_Speed
11 15 13 15 15 16 17 17 16 17 17 16 16 16 16 15 15 14 13 13 13 14 14 15 16 16 17 16 16 16 15 15 16 15 16 16 15 14 12 12 15 16 14
17 16 14 16 17 18 18 17 16 17 16 16 15 15 16 15 15 14 13 13 13 14 15 15 16 17 15 15 16 16 15 12 14 15 15 16 15 14 14 15 14 15 15
17 17 16 16 17 18 18 16 17 17 17 16 15 14 14 14 15 15 13 12 13 13 14 15 14 15 15 14 14 15 14 14 13 8 6 12 13 12 14 14 14 13 14
17 17 17 14 16 17 17 16 16 15 15 15 14 13 13 13 14 15 14 13 12 13 13 13 14 13 14 14 13 14 13 13 9 6 4 8 12 11 12 13 12 13 13
13 14 17 14 14 15 15 14 14 14 14 14 13 13 13 12 14 14 14 12 13 13 13 13 13 13 12 12 12 12 12 11 7 5 7 5 9 11 10 11 13 10 11
15 13 16 14 15 15 14 14 14 13 13 13 13 13 13 14 13 13 14 13 13 12 11 11 12 11 11 11 10 10 10 7 5 7 6 5 9 10 9 9 10 10 11
17 14 16 13 14 14 14 14 14 13 12 11 11 12 12 12 12 13 14 13 12 12 11 10 10 9 9 8 7 6 6 2 1 3 5 3 10 7 7 8 9 8 8
14 16 16 14 14 14 14 13 13 12 11 11 10 10 9 10 10 10 13 12 12 12 11 9 8 7 6 5 4 4 4 3 2 3 1 3 11 4 7 7 6 8 8
13 13 13 14 13 13 13 13 12 11 10 9 8 9 10 10 4 5 7 9 8 8 8 8 7 5 4 3 2 1 2 4 3 4 6 6 10 5 6 7 8 8 8
11 13 12 12 13 11 12 11 11 10 10 10 9 6 11 13 7 3 2 5 5 5 5 5 6 5 3 2 1 1 3 6 9 4 6 3 8 6 7 8 8 8 8
10 11 12 13 12 10 10 11 9 9 10 16 9 6 7 5 5 1 2 1 2 3 5 5 4 4 3 5 3 2 4 5 5 4 6 14 7 9 11 10 10 10 9
13 13 12 12 12 10 8 10 7 8 8 7 8 2 0 1 6 4 7 4 4 4 6 5 5 5 8 4 6 11 6 3 4 7 4 10 8 10 13 13 11 11 10
13 11 12 10 10 11 7 9 5 5 5 5 8 8 10 5 3 4 3 4 1 6 7 12 11 9 3 4 4 4 4 5 3 5 8 7 8 11 12 15 15 13 12
13 12 11 12 10 9 6 7 6 5 6 6 7 8 5 5 9 8 6 5 6 5 6 7 5 5 5 5 7 3 6 7 5 4 5 10 8 10 12 13 15 16 14
12 13 12 12 11 11 9 7 7 6 4 5 5 8 9 6 6 6 9 7 7 6 7 8 9 6 6 6 7 6 7 7 7 5 4 13 11 12 13 15 15 15 15
11 12 13 14 13 12 11 8 5 4 4 3 5 6 7 8 6 6 8 8 8 7 8 9 9 7 7 6 7 7 7 8 5 6 6 7 14 14 14 15 16 16 15
9 10 11 12 13 12 11 9 7 5 7 6 5 8 9 11 11 7 7 3 7 7 8 7 8 8 8 7 8 8 8 9 8 7 7 7 10 16 16 15 16 16 15
8 8 10 10 12 13 10 9 5 4 6 9 6 6 9 12 12 9 7 7 7 6 6 7 8 9 9 8 7 7 7 8 8 9 8 6 7 6 15 17 16 15 16
9 10 10 11 11 11 11 9 8 6 8 8 7 8 8 11 13 9 10 7 6 4 6 7 6 8 9 9 9 9 8 8 8 9 8 8 9 7 7 19 15 12 16
10 10 10 10 11 10 8 9 9 9 7 8 9 8 9 8 8 5 7 6 8 6 7 7 7 7 7 9 9 8 9 8 8 8 9 10 10 11 12 9 11 11 16
10 11 12 12 11 10 10 10 10 10 9 8 9 12 12 10 10 11 10 10 9 8 10 8 8 8 8 8 7 8 10 12 12 10 9 9 9 10 10 8 7 7 11
11 12 12 13 12 12 9 8 7 6 7 7 5 7 10 11 11 11 11 9 10 8 8 8 8 5 6 4 6 6 8 9 10 10 9 9 11 8 10 10 11 10 8
12 11 11 12 12 12 11 8 6 5 5 6 7 7 8 10 11 12 11 10 11 9 8 10 9 12 6 6 8 5 5 7 0 6 6 7 9 9 9 9 11 11 11
8 7 8 9 11 11 11 10 12 8 8 6 6 5 6 10 10 11 13 12 11 10 10 9 7 10 8 7 6 9 12 8 3 3 3 6 6 9 11 9 11 11 11
6 8 6 8 10 8 8 11 9 9 7 6 6 7 8 7 10 12 13 12 11 10 11 11 10 11 6 7 9 7 7 7 10 6 6 7 5 7 8 9 9 9 12
7 7 7 7 7 7 7 8 10 9 8 7 6 7 7 7 8 12 12 11 11 11 11 10 11 11 9 8 7 8 8 4 5 8 8 6 8 6 6 8 9 9 9
Wind_Direction
143 135 147 143 141 137 130 129 134 131 129 132 129 127 127 123 115 109 109 107 107 105 104 107 110 109 105 104 98 96 99 103 103 99 100 99 96 94 101 115 132 100 97
137 130 130 129 132 134 131 133 133 130 132 136 137 134 131 126 120 115 116 116 111 111 108 107 105 107 106 107 114 110 110 105 105 111 109 101 94 92 85 84 86 97 102
134 131 132 127 130 132 133 135 132 137 140 140 141 135 129 127 126 123 123 122 120 117 115 110 109 111 114 117 104 106 112 107 97 99 183 101 93 94 95 95 98 97 94
136 144 135 127 129 131 134 137 135 140 138 137 139 138 138 130 127 124 127 128 126 122 118 116 113 114 115 115 107 101 99 97 109 181 108 88 99 99 101 105 104 103 103
140 133 119 131 129 130 132 133 135 140 143 144 147 146 138 138 127 129 123 124 123 117 121 122 117 116 117 112 102 106 106 111 120 121 94 84 103 108 112 121 120 103 81
143 135 134 137 136 138 140 140 140 147 147 146 144 141 136 132 131 129 124 131 128 127 120 114 115 116 123 119 118 112 108 114 222 89 105 95 82 112 111 97 98 102 106
135 141 145 144 143 144 148 146 150 150 145 140 136 138 138 130 133 134 133 139 126 120 120 120 124 123 125 124 121 122 110 81 360 83 41 38 102 132 128 126 121 115 115
142 148 135 144 146 149 151 155 157 151 148 144 147 137 129 127 130 142 144 145 141 138 134 130 131 134 141 143 144 136 122 128 103 51 16 293 99 154 153 151 152 139 131
144 137 146 152 149 155 159 156 154 149 148 142 129 115 103 60 89 118 128 126 132 134 136 138 138 137 148 147 148 200 215 194 166 208 243 207 131 186 185 172 171 161 154
169 146 152 151 159 167 160 158 149 145 136 109 98 104 91 106 316 338 155 125 139 145 155 155 151 152 161 154 166 234 239 241 251 204 241 121 135 198 204 192 190 183 172
170 164 164 162 165 175 165 154 157 153 129 100 70 9 68 174 218 356 262 144 198 195 189 188 186 186 199 200 182 267 276 236 318 229 244 119 165 216 219 210 206 202 193
169 178 169 175 165 163 185 147 172 159 128 138 146 114 11 251 274 288 289 256 235 243 222 210 213 223 234 251 179 200 224 271 155 245 230 128 192 222 223 221 218 212 208
175 181 174 179 175 178 178 148 173 164 137 156 174 178 200 230 214 262 312 277 188 223 255 192 192 224 214 289 290 302 309 277 255 252 109 143 207 226 223 221 223 224 218
182 186 182 177 182 202 177 170 194 150 162 178 181 198 206 208 240 232 244 243 225 235 238 255 258 283 255 237 270 316 284 309 266 253 156 168 207 217 230 228 225 227 224
186 191 191 186 189 194 205 194 168 178 162 202 214 232 236 239 213 249 241 259 225 213 228 265 241 218 237 254 261 266 276 194 259 261 269 167 208 220 226 231 224 221 225
191 191 196 198 191 204 203 215 158 181 185 194 249 241 240 239 235 219 247 236 249 248 239 229 231 229 226 253 258 261 266 279 244 279 261 181 192 216 222 226 228 229 235
192 184 198 204 197 201 206 208 213 186 204 204 222 244 260 245 235 226 236 225 234 241 256 239 226 224 240 248 249 266 266 252 256 244 253 255 180 205 221 225 228 238 234
219 197 205 202 200 194 199 206 212 190 216 219 214 194 232 251 242 245 241 235 228 240 236 239 209 218 231 238 247 257 269 268 257 245 251 259 222 226 194 215 221 230 221
207 200 216 219 212 197 192 204 205 199 227 236 226 231 225 231 235 230 237 214 233 227 234 242 241 229 231 242 248 242 248 253 260 256 243 222 241 250 240 175 207 216 215
227 215 224 218 215 204 206 201 213 220 224 227 230 241 223 232 241 211 240 260 227 218 243 229 220 239 250 260 249 247 250 258 262 259 251 231 222 224 226 214 182 207 208
225 231 227 222 221 207 205 206 210 217 222 217 228 223 228 233 221 229 230 222 239 217 235 233 229 237 232 230 243 235 247 249 240 244 240 240 246 224 241 223 222 239 183
230 232 229 231 220 212 213 221 233 236 225 238 230 221 214 223 224 228 236 219 220 232 227 240 240 229 238 284 238 246 255 248 222 231 226 234 237 229 230 218 228 226 256
245 234 233 237 232 225 225 216 214 231 249 228 225 229 222 222 223 221 223 233 223 225 218 217 212 234 221 200 219 255 221 245 324 227 224 234 246 247 241 230 212 215 216
239 251 240 240 234 227 220 230 227 237 229 217 236 228 216 211 219 215 221 219 220 219 219 216 219 235 237 231 195 221 259 309 236 292 273 219 214 231 231 231 225 225 212
259 248 226 218 233 233 224 235 233 237 251 250 236 229 245 241 231 214 211 223 227 227 216 224 219 223 219 246 242 217 218 241 246 253 265 267 223 209 223 215 220 219 204
253 233 217 205 226 233 228 229 240 249 254 272 262 262 239 229 221 222 216 215 223 232 228 217 224 228 236 244 237 273 249 257 231 232 253 255 254 249 216 211 227 222 221